Time,TemperatureF,DewpointF,PressureIn,WindDirection,WindDirectionDegrees,WindSpeedMPH,WindSpeedGustMPH,Humidity,HourlyPrecipIn,Conditions,Clouds,dailyrainin,SoftwareType,DateUTC
2013-01-21 00:09:00,24.4,24.0,30.55,ENE,57,0.0,0.0,97,0.00,,,0.00,weatherlink.com 1.10,2013-01-21 08:09:00,
2013-01-21 00:24:00,24.4,24.0,30.55,NE,56,0.0,1.0,97,0.00,,,0.00,weatherlink.com 1.10,2013-01-21 08:24:00,
2013-01-21 00:39:00,24.3,24.0,30.55,ENE,74,0.0,1.0,97,0.00,,,0.00,weatherlink.com 1.10,2013-01-21 08:39:00,
2013-01-21 00:54:00,24.4,24.0,30.55,East,79,0.0,1.0,97,0.00,,,0.00,weatherlink.com 1.10,2013-01-21 08:54:00,
2013-01-21 01:09:00,24.4,24.0,30.54,East,79,0.0,1.0,97,0.00,,,0.00,weatherlink.com 1.10,2013-01-21 09:09:00,
2013-01-21 01:24:00,24.3,24.0,30.55,ESE,112,0.0,1.0,97,0.00,,,0.00,weatherlink.com 1.10,2013-01-21 09:24:00,
2013-01-21 01:39:00,24.3,24.0,30.54,ESE,110,0.0,0.0,97,0.00,,,0.00,weatherlink.com 1.10,2013-01-21 09:39:00,
2013-01-21 01:54:00,24.4,24.0,30.54,ESE,112,0.0,0.0,97,0.00,,,0.00,weatherlink.com 1.10,2013-01-21 09:54:00,
2013-01-21 02:09:00,24.5,24.0,30.54,ESE,110,0.0,0.0,97,0.00,,,0.00,weatherlink.com 1.10,2013-01-21 10:09:00,
2013-01-21 02:25:00,24.4,24.0,30.54,ESE,108,0.0,1.0,97,0.00,,,0.00,weatherlink.com 1.10,2013-01-21 10:25:00,
2013-01-21 02:40:00,24.3,24.0,30.54,ESE,109,0.0,0.0,97,0.00,,,0.00,weatherlink.com 1.10,2013-01-21 10:40:00,
2013-01-21 02:54:00,24.3,24.0,30.54,ESE,109,0.0,0.0,97,0.00,,,0.00,weatherlink.com 1.10,2013-01-21 10:54:00,
2013-01-21 03:09:00,24.3,24.0,30.53,ESE,109,0.0,0.0,97,0.00,,,0.00,weatherlink.com 1.10,2013-01-21 11:09:00,
2013-01-21 03:24:00,24.3,24.0,30.53,ESE,108,0.0,1.0,97,0.00,,,0.00,weatherlink.com 1.10,2013-01-21 11:24:00,
2013-01-21 03:39:00,24.3,24.0,30.53,ESE,109,0.0,0.0,97,0.00,,,0.00,weatherlink.com 1.10,2013-01-21 11:39:00,
2013-01-21 03:54:00,24.3,24.0,30.52,ESE,108,0.0,1.0,97,0.00,,,0.00,weatherlink.com 1.10,2013-01-21 11:54:00,
2013-01-21 04:09:00,24.3,24.0,30.53,ESE,108,0.0,0.0,97,0.00,,,0.00,weatherlink.com 1.10,2013-01-21 12:09:00,
2013-01-21 04:24:00,24.3,24.0,30.52,ESE,108,0.0,0.0,97,0.00,,,0.00,weatherlink.com 1.10,2013-01-21 12:24:00,
2013-01-21 04:39:00,24.2,24.0,30.52,ESE,107,0.0,0.0,97,0.00,,,0.00,weatherlink.com 1.10,2013-01-21 12:39:00,
2013-01-21 04:54:00,24.2,24.0,30.52,ESE,108,0.0,0.0,97,0.00,,,0.00,weatherlink.com 1.10,2013-01-21 12:54:00,
2013-01-21 05:09:00,24.2,24.0,30.52,ENE,72,0.0,0.0,97,0.00,,,0.00,weatherlink.com 1.10,2013-01-21 13:09:00,
2013-01-21 05:24:00,24.2,24.0,30.52,ENE,72,0.0,0.0,97,0.00,,,0.00,weatherlink.com 1.10,2013-01-21 13:24:00,
2013-01-21 05:39:00,24.3,24.0,30.52,East,79,0.0,0.0,97,0.00,,,0.00,weatherlink.com 1.10,2013-01-21 13:39:00,
2013-01-21 05:54:00,24.2,24.0,30.51,NNE,33,0.0,1.0,97,0.00,,,0.00,weatherlink.com 1.10,2013-01-21 13:54:00,
2013-01-21 06:09:00,24.2,24.0,30.51,NE,44,0.0,0.0,97,0.00,,,0.00,weatherlink.com 1.10,2013-01-21 14:09:00,
2013-01-21 06:24:00,24.2,24.0,30.51,NE,43,0.0,1.0,97,0.00,,,0.00,weatherlink.com 1.10,2013-01-21 14:24:00,
2013-01-21 06:39:00,24.2,24.0,30.50,NE,47,0.0,0.0,97,0.00,,,0.00,weatherlink.com 1.10,2013-01-21 14:39:00,
2013-01-21 06:54:00,24.2,24.0,30.51,NNE,16,0.0,1.0,97,0.00,,,0.00,weatherlink.com 1.10,2013-01-21 14:54:00,
2013-01-21 07:09:00,24.2,24.0,30.51,NNE,22,0.0,1.0,97,0.00,,,0.00,weatherlink.com 1.10,2013-01-21 15:09:00,
2013-01-21 07:24:00,24.1,23.0,30.50,NNE,27,0.0,1.0,97,0.00,,,0.00,weatherlink.com 1.10,2013-01-21 15:24:00,
2013-01-21 07:39:00,24.1,23.0,30.50,NE,44,0.0,0.0,97,0.00,,,0.00,weatherlink.com 1.10,2013-01-21 15:39:00,
2013-01-21 07:54:00,24.1,23.0,30.50,NE,44,0.0,0.0,97,0.00,,,0.00,weatherlink.com 1.10,2013-01-21 15:54:00,
2013-01-21 08:09:00,24.0,23.0,30.49,NE,44,0.0,0.0,97,0.00,,,0.00,weatherlink.com 1.10,2013-01-21 16:09:00,
2013-01-21 08:24:00,24.0,23.0,30.50,NE,44,0.0,1.0,97,0.00,,,0.00,weatherlink.com 1.10,2013-01-21 16:24:00,
2013-01-21 08:39:00,24.1,23.0,30.50,NNE,33,0.0,2.0,97,0.00,,,0.00,weatherlink.com 1.10,2013-01-21 16:39:00,
2013-01-21 08:54:00,24.2,24.0,30.50,NE,54,0.0,1.0,97,0.00,,,0.00,weatherlink.com 1.10,2013-01-21 16:54:00,
2013-01-21 09:09:00,24.2,24.0,30.50,NE,53,0.0,1.0,97,0.00,,,0.00,weatherlink.com 1.10,2013-01-21 17:09:00,
2013-01-21 09:25:00,24.2,24.0,30.50,NE,53,0.0,0.0,97,0.00,,,0.00,weatherlink.com 1.10,2013-01-21 17:25:00,
2013-01-21 09:39:00,24.3,24.0,30.50,NE,54,0.0,0.0,97,0.00,,,0.00,weatherlink.com 1.10,2013-01-21 17:39:00,
2013-01-21 09:54:00,24.5,24.0,30.50,NE,53,0.0,0.0,97,0.00,,,0.00,weatherlink.com 1.10,2013-01-21 17:54:00,
2013-01-21 10:09:00,24.4,24.0,30.50,ENE,66,1.0,1.0,97,0.00,,,0.00,weatherlink.com 1.10,2013-01-21 18:09:00,
2013-01-21 10:24:00,24.5,24.0,30.51,ENE,67,0.0,1.0,97,0.00,,,0.00,weatherlink.com 1.10,2013-01-21 18:24:00,
2013-01-21 10:40:00,24.7,24.0,30.50,ENE,68,0.0,0.0,97,0.00,,,0.00,weatherlink.com 1.10,2013-01-21 18:40:00,
2013-01-21 10:55:00,24.7,24.0,30.50,NE,44,0.0,2.0,97,0.00,,,0.00,weatherlink.com 1.10,2013-01-21 18:55:00,
2013-01-21 11:25:00,25.0,24.0,30.49,East,84,0.0,1.0,97,0.00,,,0.00,weatherlink.com 1.10,2013-01-21 19:25:00,
2013-01-21 11:40:00,25.1,24.0,30.48,East,80,0.0,1.0,97,0.00,,,0.00,weatherlink.com 1.10,2013-01-21 19:40:00,
2013-01-21 11:56:00,25.1,24.0,30.48,ENE,70,0.0,1.0,97,0.00,,,0.00,weatherlink.com 1.10,2013-01-21 19:56:00,
2013-01-21 12:11:00,25.3,25.0,30.47,ENE,71,0.0,1.0,97,0.00,,,0.00,weatherlink.com 1.10,2013-01-21 20:11:00,
2013-01-21 12:40:00,25.3,25.0,30.46,ENE,71,0.0,0.0,97,0.00,,,0.00,weatherlink.com 1.10,2013-01-21 20:40:00,
2013-01-21 12:55:00,25.1,24.0,30.46,NE,51,0.0,1.0,97,0.00,,,0.00,weatherlink.com 1.10,2013-01-21 20:55:00,
2013-01-21 13:10:00,25.0,24.0,30.45,NE,39,0.0,2.0,97,0.00,,,0.00,weatherlink.com 1.10,2013-01-21 21:10:00,
2013-01-21 13:25:00,25.1,24.0,30.45,ENE,77,0.0,1.0,97,0.00,,,0.00,weatherlink.com 1.10,2013-01-21 21:25:00,
2013-01-21 13:42:00,25.0,24.0,30.45,NNE,20,0.0,2.0,97,0.00,,,0.00,weatherlink.com 1.10,2013-01-21 21:42:00,
2013-01-21 13:55:00,25.2,25.0,30.45,NE,54,0.0,1.0,97,0.00,,,0.00,weatherlink.com 1.10,2013-01-21 21:55:00,
2013-01-21 14:12:00,25.3,25.0,30.45,North,4,0.0,3.0,97,0.00,,,0.00,weatherlink.com 1.10,2013-01-21 22:12:00,
2013-01-21 14:26:00,25.1,24.0,30.45,NE,43,0.0,1.0,97,0.00,,,0.00,weatherlink.com 1.10,2013-01-21 22:26:00,
2013-01-21 14:41:00,25.2,25.0,30.45,NE,42,0.0,1.0,97,0.00,,,0.00,weatherlink.com 1.10,2013-01-21 22:41:00,
2013-01-21 14:56:00,25.2,25.0,30.44,NE,47,0.0,0.0,97,0.00,,,0.00,weatherlink.com 1.10,2013-01-21 22:56:00,
2013-01-21 15:11:00,25.3,25.0,30.44,NE,50,0.0,1.0,97,0.00,,,0.00,weatherlink.com 1.10,2013-01-21 23:11:00,
2013-01-21 15:26:00,25.1,24.0,30.44,NE,49,0.0,1.0,97,0.00,,,0.00,weatherlink.com 1.10,2013-01-21 23:26:00,
2013-01-21 15:41:00,25.1,24.0,30.44,NE,49,0.0,1.0,97,0.00,,,0.00,weatherlink.com 1.10,2013-01-21 23:41:00,
2013-01-21 15:56:00,25.3,25.0,30.44,NE,49,0.0,1.0,97,0.00,,,0.00,weatherlink.com 1.10,2013-01-21 23:56:00,
2013-01-21 16:11:00,25.2,25.0,30.44,NE,49,0.0,1.0,97,0.00,,,0.00,weatherlink.com 1.10,2013-01-22 00:11:00,
2013-01-21 16:26:00,25.1,24.0,30.44,NNE,30,0.0,1.0,97,0.00,,,0.00,weatherlink.com 1.10,2013-01-22 00:26:00,
2013-01-21 16:41:00,25.1,24.0,30.44,NE,56,0.0,1.0,97,0.00,,,0.00,weatherlink.com 1.10,2013-01-22 00:41:00,
2013-01-21 16:56:00,25.1,24.0,30.44,ENE,57,0.0,1.0,97,0.00,,,0.00,weatherlink.com 1.10,2013-01-22 00:56:00,
2013-01-21 17:11:00,25.1,24.0,30.44,ENE,57,0.0,1.0,97,0.00,,,0.00,weatherlink.com 1.10,2013-01-22 01:11:00,
2013-01-21 17:26:00,25.1,24.0,30.44,ENE,57,0.0,1.0,97,0.00,,,0.00,weatherlink.com 1.10,2013-01-22 01:26:00,
2013-01-21 17:43:00,25.1,24.0,30.44,ENE,58,0.0,0.0,97,0.00,,,0.00,weatherlink.com 1.10,2013-01-22 01:43:00,
2013-01-21 17:56:00,25.1,24.0,30.44,ENE,71,0.0,1.0,97,0.00,,,0.00,weatherlink.com 1.10,2013-01-22 01:56:00,
2013-01-21 18:11:00,25.1,24.0,30.44,ENE,72,0.0,0.0,97,0.00,,,0.00,weatherlink.com 1.10,2013-01-22 02:11:00,
2013-01-21 18:26:00,25.0,24.0,30.44,ENE,71,0.0,1.0,97,0.00,,,0.00,weatherlink.com 1.10,2013-01-22 02:26:00,
2013-01-21 18:41:00,25.0,24.0,30.44,ENE,71,0.0,1.0,97,0.00,,,0.00,weatherlink.com 1.10,2013-01-22 02:41:00,
2013-01-21 18:58:00,24.9,24.0,30.43,ENE,71,0.0,1.0,97,0.00,,,0.00,weatherlink.com 1.10,2013-01-22 02:58:00,
2013-01-21 19:11:00,24.9,24.0,30.43,ENE,71,0.0,1.0,97,0.00,,,0.00,weatherlink.com 1.10,2013-01-22 03:11:00,
2013-01-21 19:27:00,24.8,24.0,30.43,ENE,77,0.0,1.0,97,0.00,,,0.00,weatherlink.com 1.10,2013-01-22 03:27:00,
2013-01-21 19:41:00,24.9,24.0,30.43,ENE,77,0.0,1.0,97,0.00,,,0.00,weatherlink.com 1.10,2013-01-22 03:41:00,
2013-01-21 19:57:00,24.8,24.0,30.43,ENE,77,1.0,1.0,97,0.00,,,0.00,weatherlink.com 1.10,2013-01-22 03:57:00,
2013-01-21 20:12:00,24.8,24.0,30.43,ENE,77,0.0,0.0,97,0.00,,,0.00,weatherlink.com 1.10,2013-01-22 04:12:00,
2013-01-21 20:27:00,24.8,24.0,30.43,ENE,77,0.0,0.0,97,0.00,,,0.00,weatherlink.com 1.10,2013-01-22 04:27:00,
2013-01-21 20:42:00,24.7,24.0,30.43,ENE,77,0.0,0.0,97,0.00,,,0.00,weatherlink.com 1.10,2013-01-22 04:42:00,
2013-01-21 20:57:00,24.7,24.0,30.43,ENE,77,0.0,0.0,97,0.00,,,0.00,weatherlink.com 1.10,2013-01-22 04:57:00,
2013-01-21 21:12:00,24.6,24.0,30.43,ENE,77,0.0,0.0,97,0.00,,,0.00,weatherlink.com 1.10,2013-01-22 05:12:00,
2013-01-21 21:27:00,24.6,24.0,30.43,ENE,75,0.0,0.0,97,0.00,,,0.00,weatherlink.com 1.10,2013-01-22 05:27:00,
2013-01-21 21:42:00,24.5,24.0,30.43,ENE,77,0.0,0.0,97,0.00,,,0.00,weatherlink.com 1.10,2013-01-22 05:42:00,
2013-01-21 21:57:00,24.5,24.0,30.44,ENE,58,1.0,1.0,97,0.00,,,0.00,weatherlink.com 1.10,2013-01-22 05:57:00,
2013-01-21 22:12:00,24.5,24.0,30.44,NE,56,0.0,0.0,97,0.00,,,0.00,weatherlink.com 1.10,2013-01-22 06:12:00,
2013-01-21 22:26:00,24.5,24.0,30.43,NE,56,0.0,0.0,97,0.00,,,0.00,weatherlink.com 1.10,2013-01-22 06:26:00,
2013-01-21 22:41:00,24.4,24.0,30.44,ENE,61,0.0,1.0,97,0.00,,,0.00,weatherlink.com 1.10,2013-01-22 06:41:00,
2013-01-21 22:56:00,24.4,24.0,30.44,ENE,77,0.0,0.0,97,0.00,,,0.00,weatherlink.com 1.10,2013-01-22 06:56:00,
2013-01-21 23:28:00,24.4,24.0,30.44,ENE,77,0.0,0.0,97,0.00,,,0.00,weatherlink.com 1.10,2013-01-22 07:28:00,
2013-01-21 23:41:00,24.4,24.0,30.44,ENE,77,0.0,1.0,97,0.00,,,0.00,weatherlink.com 1.10,2013-01-22 07:41:00,
2013-01-21 23:56:00,24.4,24.0,30.44,ENE,77,1.0,1.0,97,0.00,,,0.00,weatherlink.com 1.10,2013-01-22 07:56:00,